{"data":{"norad_id":49301,"epoch":"2026-09-19T17:17:09.243168Z","epoch_age_seconds":93067,"freshness":"FRESH","line1":"1 49301U 21090Y   26262.72024587  .00000113  00000+0  24693-3 0  9993","line2":"2 49301  87.9142 255.5748 0002377  98.1964 261.9439 13.20773582243003","mean_motion":13.20773582,"eccentricity":0.0002377,"inclination_deg":87.9142,"raan_deg":255.5748,"arg_perigee_deg":98.1964,"mean_anomaly_deg":261.9439,"bstar":0.00024693,"rev_number":24300,"period_min":109.02701413966,"perigee_km":1179.9696330581,"apogee_km":1183.5636112401,"semimajor_km":7559.9036221491,"source":"CELESTRAK","updated_at":"2026-09-20T09:00:44.673161Z"}}